[[{"header":{"parameterUnit":"m.s-1","parameterCategory":2,"la1":30.2991,"la2":30.254,"lo1":-89.0895,"lo2":-89.0444,"dy":0.0017,"dx":0.0017,"nx":28,"ny":28,"refTime":"2025-04-30T09:00:00:Z","depth":"0","parameterNumber":2,"parameterNumberName":"U-component_of_CURRENTS"},"data":[0,0,0,0,0,0,0,0,0,0,0,0,0,0,0,0,0,0,0,0,0,0,0,0,0,0,0,0,0,0,0,0,0,0,0,0,0,0,0,0,0,0,0,0,0,0,0,0,0,0,0,0,0,0,0,0,0,0,-0.2756,-0.2756,0,-0.2799,-0.28,-0.28,-0.278,-0.2779,-0.2778,-0.2777,-0.2745,-0.2745,-0.2745,0,0,0,0,0,0,0,0,0,0,0,0,0,-0.2641,-0.2643,-0.2756,-0.2756,-0.2757,-0.2799,-0.28,-0.28,-0.278,-0.2779,-0.2778,-0.2777,-0.2745,-0.2745,-0.2745,0,0,0,0,0,0,0,0,0,0,0,0,0,-0.2686,-0.2644,-0.2755,-0.2754,-0.2755,-0.2799,-0.28,-0.28,-0.278,-0.2779,-0.2777,-0.2776,-0.2745,-0.2745,-0.2745,-0.2769,0,0,-0.2745,-0.2745,0,0,0,0,0,0,0,0,-0.2683,-0.2689,-0.2754,-0.2755,-0.2755,-0.2785,-0.2748,-0.2787,-0.278,-0.2767,-0.2777,-0.2776,-0.2754,-0.2754,-0.2761,-0.2768,-0.2766,-0.2745,-0.2745,-0.2744,-0.2744,0,0,0,0,0,0,0,-0.268,-0.2687,-0.277,-0.2755,-0.2756,-0.2747,-0.2752,-0.2755,-0.2764,-0.2768,-0.2768,-0.2778,-0.2754,-0.2762,-0.276,-0.2766,-0.2745,-0.2745,-0.2744,-0.2744,-0.2795,-0.2796,0,0,0,0,0,0,-0.2683,-0.2685,-0.2769,-0.2771,-0.2719,-0.2751,-0.2756,-0.2775,-0.2765,-0.2764,-0.2779,-0.2777,-0.2762,-0.276,-0.2759,-0.2792,-0.2744,-0.2744,-0.2744,-0.2794,-0.2795,-0.2797,0,0,0,0,0,0,-0.2681,-0.2691,-0.2767,-0.2731,-0.274,-0.2754,-0.2775,-0.2776,-0.2779,-0.2775,-0.2771,-0.2781,-0.2761,-0.2759,-0.2767,-0.279,-0.2744,-0.2744,-0.2792,-0.2794,-0.2796,-0.2854,0,0,0,0,0,0,-0.2677,-0.269,-0.2697,-0.2731,-0.2742,-0.2798,-0.2777,-0.2778,-0.2789,-0.2787,-0.2775,-0.2771,-0.276,-0.2767,-0.2767,-0.2789,-0.2744,-0.279,-0.2793,-0.2795,-0.285,-0.2858,-0.2864,0,0,0,0,0,-0.2673,-0.2694,-0.2697,-0.2707,-0.2755,-0.2799,-0.2804,-0.2807,-0.2791,-0.2802,-0.2794,-0.2772,-0.2784,-0.2769,-0.2768,-0.279,-0.2789,-0.2792,-0.2795,-0.2847,-0.2856,-0.2864,0,0,0,0,0,0,-0.2645,-0.2696,-0.2699,-0.2733,-0.2765,-0.2797,-0.2806,-0.281,-0.2814,-0.2804,-0.2789,-0.2786,-0.2803,-0.2791,-0.2775,-0.2814,-0.2783,-0.2787,-0.2823,-0.2832,-0.2839,-0.2843,-0.2744,0,0,0,0,0,-0.2645,-0.2673,-0.2718,-0.2742,-0.276,-0.2782,-0.2796,-0.2805,-0.2818,-0.2818,-0.2812,-0.2809,-0.2819,-0.2819,-0.2823,-0.2843,-0.2829,-0.2858,-0.2865,-0.2871,-0.2876,-0.2887,-0.2895,-0.2807,-0.2807,-0.2807,0,0,-0.2639,-0.2671,-0.2685,-0.2738,-0.2758,-0.2797,-0.2786,-0.2816,-0.2844,-0.2814,-0.2836,-0.2832,-0.283,-0.2856,-0.2862,-0.2845,-0.2887,-0.2875,-0.288,-0.2881,-0.2891,-0.2899,-0.2907,-0.281,-0.2809,-0.2809,0,0,-0.2648,-0.2672,-0.27,-0.2734,-0.2778,-0.2801,-0.2811,-0.2848,-0.2856,-0.2885,-0.2873,-0.2887,-0.2894,-0.2907,-0.2911,-0.2961,-0.2925,-0.2958,-0.2995,-0.3006,-0.3013,-0.3019,-0.3001,-0.3006,-0.296,-0.296,-0.296,0,-0.2634,-0.2682,-0.2713,-0.2754,-0.2782,-0.2805,-0.2843,-0.2869,-0.2901,-0.2916,-0.2896,-0.293,-0.2924,-0.2967,-0.2982,-0.2978,-0.2963,-0.2961,-0.3015,-0.302,-0.3025,-0.3006,-0.301,-0.2963,-0.2962,-0.2962,-0.2962,0,-0.2669,-0.2708,-0.2729,-0.2789,-0.2826,-0.2862,-0.291,-0.2939,-0.2947,-0.2969,-0.3006,-0.3007,-0.3023,-0.3031,-0.3018,-0.3061,-0.3031,-0.3022,-0.2991,-0.3038,-0.3014,-0.3017,-0.2967,-0.2966,-0.2965,-0.2965,0,0,-0.2629,-0.2732,-0.2737,-0.2772,-0.2848,-0.288,-0.2939,-0.2998,-0.3031,-0.3055,-0.3091,-0.3118,-0.311,-0.3115,-0.3108,-0.3119,-0.3139,-0.3084,-0.3083,-0.3062,-0.3139,-0.3031,-0.3023,-0.3135,-0.3136,-0.3137,-0.3104,0,-0.2639,-0.2717,-0.2771,-0.2839,-0.288,-0.2936,-0.2991,-0.3046,-0.308,-0.3121,-0.3138,-0.3164,-0.3146,-0.3148,-0.3163,-0.3148,-0.315,-0.3147,-0.3101,-0.3099,-0.2994,-0.3025,-0.2903,-0.2855,-0.3106,-0.3106,-0.3107,0,-0.2646,-0.2701,-0.277,-0.2869,-0.2891,-0.2934,-0.3018,-0.3072,-0.3145,-0.3171,-0.3208,-0.3215,-0.3245,-0.3213,-0.322,-0.3214,-0.318,-0.3163,-0.3162,-0.3043,-0.2997,-0.2852,-0.2851,-0.2835,-0.3111,-0.311,-0.311,0,-0.2589,-0.2695,-0.2747,-0.2781,-0.2897,-0.2932,-0.2985,-0.3072,-0.3121,-0.3192,-0.3222,-0.3263,-0.3269,-0.326,-0.3219,-0.3221,-0.3203,-0.3203,-0.3075,-0.3066,-0.2943,-0.2921,-0.2916,-0.32,-0.32,-0.32,-0.32,0,-0.2576,-0.2614,-0.272,-0.2747,-0.2803,-0.2895,-0.2957,-0.3021,-0.3113,-0.316,-0.3227,-0.3253,-0.3279,-0.3271,-0.3234,-0.315,-0.3213,-0.308,-0.3055,-0.2957,-0.2938,-0.2901,-0.2926,-0.3199,-0.3199,-0.3199,-0.3199,0,-0.2501,-0.2579,-0.2635,-0.2745,-0.2776,-0.2806,-0.2924,-0.2968,-0.3071,-0.3132,-0.3153,-0.3244,-0.3228,-0.3226,-0.3202,-0.3149,-0.3034,-0.3041,-0.2907,-0.2865,-0.2724,-0.2756,-0.2712,-0.2637,-0.2906,-0.2903,-0.2901,0,-0.2469,-0.2491,-0.2595,-0.2617,-0.266,-0.2728,-0.2773,-0.2911,-0.2964,-0.3107,-0.3119,-0.3156,-0.3131,-0.3065,-0.2991,-0.2902,-0.2913,-0.2746,-0.2733,-0.2696,-0.2715,-0.2742,-0.2685,-0.2594,-0.259,-0.2586,-0.2583,0,-0.2385,-0.2419,-0.246,-0.2508,-0.255,-0.2613,-0.2689,-0.2735,-0.2888,-0.2943,-0.2992,-0.2985,-0.2947,-0.2814,-0.2719,-0.2653,-0.2679,-0.2661,-0.2673,-0.2507,-0.249,-0.2409,-0.263,-0.2549,-0.2552,-0.2555,-0.2556,-0.2558,-0.2291,-0.2293,-0.2339,-0.237,-0.2419,-0.2455,-0.2454,-0.2554,-0.2606,-0.2656,-0.2771,-0.2724,-0.2687,-0.253,-0.2464,-0.2333,-0.2409,-0.2281,-0.2332,-0.2371,-0.227,-0.2394,-0.2254,-0.2256,-0.2257,-0.2259,-0.226,0,-0.2158,-0.2174,-0.2197,-0.2229,-0.2216,-0.2297,-0.2357,-0.2328,-0.2318,-0.2403,-0.2411,-0.24,-0.2269,-0.2252,-0.2147,-0.2051,-0.2014,-0.2018,-0.2054,-0.2017,-0.2157,-0.2113,-0.1875,-0.1875,-0.1875,-0.1875,-0.1875,-0.1875,-0.2086,-0.2055,-0.2072,-0.2003,-0.2018,-0.1949,-0.1942,-0.1923,-0.1947,-0.1919,-0.1949,-0.2023,-0.2048,-0.2195,-0.2063,-0.1958,-0.193,-0.1858,-0.1902,-0.2039,-0.2069,-0.2097,-0.2061,-0.1817,-0.1817,-0.1683,-0.1682,-0.1682]},{"header":{"parameterUnit":"m.s-1","parameterCategory":2,"la1":30.2991,"la2":30.254,"lo1":-89.0895,"lo2":-89.0444,"dy":0.0017,"dx":0.0017,"nx":28,"ny":28,"refTime":"2025-04-30T09:00:00:Z","depth":"0","parameterNumber":3,"parameterNumberName":"V-component_of_CURRENTS"},"data":[0,0,0,0,0,0,0,0,0,0,0,0,0,0,0,0,0,0,0,0,0,0,0,0,0,0,0,0,0,0,0,0,0,0,0,0,0,0,0,0,0,0,0,0,0,0,0,0,0,0,0,0,0,0,0,0,0,0,-0.0099,-0.0098,0,0.0007,0.0008,0.001,0.0089,0.009,0.009,0.0091,0.0253,0.0256,0.026,0,0,0,0,0,0,0,0,0,0,0,0,0,-0.016,-0.016,-0.0099,-0.0098,-0.0097,0.0006,0.0008,0.001,0.0089,0.009,0.009,0.0091,0.0251,0.0256,0.0261,0,0,0,0,0,0,0,0,0,0,0,0,0,-0.01,-0.016,-0.01,-0.0047,-0.0041,0.0006,0.0008,0.001,0.0089,0.009,0.009,0.0091,0.025,0.0256,0.0261,0.0283,0,0,0.0279,0.0282,0,0,0,0,0,0,0,0,-0.0104,-0.0097,-0.0056,-0.0051,-0.0044,0.0033,0.0046,0.0103,0.0089,0.0042,0.0091,0.0091,0.0182,0.0194,0.0215,0.029,0.0297,0.028,0.0283,0.0286,0.0287,0,0,0,0,0,0,0,-0.0108,-0.0101,-0.0055,-0.0055,-0.0048,-0.0004,0.0005,0.0058,0.011,0.0046,0.0052,0.0059,0.0186,0.0209,0.0219,0.03,0.0279,0.0285,0.0288,0.029,0.0417,0.0417,0,0,0,0,0,0,-0.0131,-0.0106,-0.0058,-0.0052,-0.0076,-0.0004,0.0006,0.001,0.0108,0.0123,0.0058,0.0062,0.0199,0.0213,0.0225,0.026,0.0285,0.0291,0.0294,0.0417,0.0417,0.0417,0,0,0,0,0,0,-0.0133,-0.0128,-0.0062,-0.0078,-0.0067,-0.0005,-0.0001,0.0011,0.0034,0.0116,0.0133,0.0068,0.02,0.0217,0.027,0.0267,0.0294,0.0299,0.0417,0.0417,0.0417,0.0326,0,0,0,0,0,0,-0.0135,-0.0129,-0.0136,-0.008,-0.0067,-0.0046,-0.0001,0.0013,0.0036,0.0043,0.013,0.0146,0.0202,0.026,0.0275,0.0275,0.0303,0.0417,0.0417,0.0417,0.033,0.0323,0.0318,0,0,0,0,0,-0.0138,-0.0156,-0.0137,-0.0131,-0.0078,-0.0047,-0.0037,0.0013,0.0035,0.0038,0.01,0.0143,0.027,0.0265,0.0282,0.0284,0.0418,0.0417,0.0417,0.0332,0.0324,0.0318,0,0,0,0,0,0,-0.0185,-0.0148,-0.0126,-0.0132,-0.0097,-0.0035,-0.0031,0.0004,0.0055,0.0062,0.0143,0.0163,0.0208,0.0257,0.0249,0.032,0.035,0.0353,0.028,0.0273,0.0267,0.0249,0.0308,0,0,0,0,0,-0.0201,-0.0204,-0.0157,-0.0161,-0.0149,-0.0091,-0.0073,-0.004,0.0012,0.0035,0.0096,0.0162,0.022,0.0253,0.0309,0.0347,0.0406,0.036,0.0354,0.0348,0.0345,0.0434,0.0436,0.0416,0.0416,0.0416,0,0,-0.022,-0.0201,-0.0201,-0.0171,-0.0139,-0.0132,-0.0078,-0.0059,-0.0045,0.0044,0.008,0.0142,0.0225,0.0268,0.0293,0.0309,0.0383,0.0348,0.0342,0.0343,0.0434,0.0437,0.0438,0.0416,0.0416,0.0416,0,0,-0.0266,-0.0244,-0.0263,-0.0242,-0.0207,-0.0169,-0.017,-0.0113,-0.008,-0.004,0.0029,0.0089,0.017,0.0234,0.0276,0.0272,0.0346,0.0285,0.0245,0.0331,0.0334,0.0337,0.0403,0.0412,0.0285,0.0284,0.0284,0,-0.0293,-0.0307,-0.0263,-0.0275,-0.0264,-0.0193,-0.0207,-0.0163,-0.0095,-0.0065,-0.0044,0.0092,0.0157,0.0229,0.0225,0.0259,0.0312,0.0263,0.0323,0.0327,0.0332,0.04,0.0411,0.028,0.0281,0.0281,0.0281,0,-0.035,-0.0359,-0.037,-0.0358,-0.0339,-0.034,-0.0279,-0.025,-0.0202,-0.0147,-0.0073,0.0022,0.0105,0.0133,0.0178,0.0241,0.0268,0.0302,0.0337,0.0328,0.04,0.0414,0.0274,0.0275,0.0277,0.0278,0,0,-0.0413,-0.0413,-0.0415,-0.0427,-0.0385,-0.0377,-0.035,-0.0299,-0.0273,-0.0196,-0.0149,-0.0048,0.0013,0.0065,0.0138,0.0209,0.0281,0.0256,0.0263,0.0314,0.0458,0.0491,0.051,0.0325,0.0327,0.0329,0.0491,0,-0.0471,-0.0523,-0.0494,-0.0525,-0.0544,-0.0473,-0.0453,-0.0392,-0.0321,-0.0257,-0.014,-0.0069,-0.0014,0.0028,0.0107,0.0245,0.0315,0.0233,0.0467,0.0473,0.0498,0.0527,0.0563,0.0712,0.0505,0.0508,0.0509,0,-0.0534,-0.0561,-0.0613,-0.0611,-0.0611,-0.0609,-0.0555,-0.0526,-0.0409,-0.0352,-0.0252,-0.0152,-0.0029,0.0015,0.0239,0.0183,0.0305,0.0408,0.0417,0.049,0.0532,0.0692,0.0746,0.0928,0.0532,0.053,0.0528,0,-0.0608,-0.0638,-0.0685,-0.0687,-0.0673,-0.067,-0.0648,-0.0557,-0.0526,-0.0403,-0.0355,-0.0195,-0.0099,0.0068,0.028,0.0265,0.0528,0.0543,0.0686,0.0689,0.0789,0.0797,0.1043,0.0696,0.0695,0.0695,0.0694,0,-0.0683,-0.0717,-0.0727,-0.0755,-0.0795,-0.0749,-0.0752,-0.0699,-0.0612,-0.0567,-0.0412,-0.0325,-0.008,0.0104,0.0275,0.0529,0.0534,0.0689,0.0742,0.0756,0.0759,0.0977,0.1035,0.0701,0.07,0.0698,0.0697,0,-0.0755,-0.0763,-0.082,-0.0832,-0.0836,-0.0863,-0.0841,-0.0833,-0.0737,-0.0668,-0.0629,-0.0404,-0.0153,0.0092,0.0392,0.0535,0.0881,0.0849,0.0837,0.0885,0.1163,0.1212,0.149,0.1594,0.103,0.1032,0.1033,0,-0.0799,-0.0838,-0.0889,-0.0929,-0.094,-0.0966,-0.0978,-0.0908,-0.0886,-0.0706,-0.0674,-0.0414,-0.0208,0.0239,0.0542,0.0861,0.0995,0.1067,0.1046,0.1198,0.1293,0.1322,0.139,0.1144,0.1147,0.1149,0.115,0,-0.0877,-0.0892,-0.0938,-0.1027,-0.1066,-0.1101,-0.1105,-0.1107,-0.0997,-0.0898,-0.0708,-0.0521,-0.0073,0.033,0.0737,0.0927,0.1195,0.1115,0.1303,0.1427,0.145,0.1567,0.0999,0.1167,0.1166,0.1164,0.1164,0.1163,-0.0921,-0.0977,-0.1039,-0.1116,-0.117,-0.1213,-0.1228,-0.1191,-0.1128,-0.0944,-0.0753,-0.0423,0.0146,0.0741,0.0959,0.1415,0.1363,0.1551,0.1605,0.1626,0.1711,0.1159,0.1363,0.1362,0.1362,0.1361,0.1361,0,-0.0974,-0.1034,-0.1122,-0.1208,-0.1277,-0.1277,-0.129,-0.1254,-0.1163,-0.0945,-0.0712,-0.0052,0.0502,0.1013,0.1645,0.1894,0.1947,0.2022,0.2093,0.2145,0.1706,0.1696,0.1944,0.1944,0.1944,0.1944,0.1944,0.1943,-0.1002,-0.1095,-0.1143,-0.1271,-0.1329,-0.1371,-0.1369,-0.1275,-0.1117,-0.072,-0.0336,-0.0014,0.0713,0.1721,0.2306,0.2365,0.2577,0.2554,0.2667,0.2377,0.2337,0.23,0.2308,0.2682,0.2682,0.3099,0.3103,0.3106]}],[{"header":{"parameterUnit":"m.s-1","parameterCategory":2,"la1":30.2991,"la2":30.254,"lo1":-89.0895,"lo2":-89.0444,"dy":0.0017,"dx":0.0017,"nx":28,"ny":28,"refTime":"2025-04-30T09:00:00:Z","depth":"2","parameterNumber":2,"parameterNumberName":"U-component_of_CURRENTS"},"data":[0,0,0,0,0,0,0,0,0,0,0,0,0,0,0,0,0,0,0,0,0,0,0,0,0,0,0,0,0,0,0,0,0,0,0,0,0,0,0,0,0,0,0,0,0,0,0,0,0,0,0,0,0,0,0,0,0,0,-0.2518,-0.2518,0,-0.2561,-0.2561,-0.2562,-0.2548,-0.2548,-0.2547,-0.2546,-0.2524,-0.2524,-0.2524,0,0,0,0,0,0,0,0,0,0,0,0,0,-0.2414,-0.2416,-0.2518,-0.2518,-0.2519,-0.2561,-0.2561,-0.2562,-0.2548,-0.2548,-0.2547,-0.2546,-0.2524,-0.2524,-0.2524,0,0,0,0,0,0,0,0,0,0,0,0,0,-0.2456,-0.2416,-0.2517,-0.252,-0.2521,-0.2561,-0.2561,-0.2562,-0.2548,-0.2548,-0.2547,-0.2546,-0.2524,-0.2524,-0.2524,-0.2544,0,0,-0.2524,-0.2524,0,0,0,0,0,0,0,0,-0.2453,-0.2459,-0.2519,-0.252,-0.2521,-0.2551,-0.2517,-0.2553,-0.2549,-0.2535,-0.2546,-0.2545,-0.2529,-0.2529,-0.2536,-0.2543,-0.2542,-0.2524,-0.2524,-0.2524,-0.2524,0,0,0,0,0,0,0,-0.245,-0.2457,-0.2532,-0.252,-0.2521,-0.2516,-0.252,-0.2524,-0.2534,-0.2536,-0.2536,-0.2546,-0.2529,-0.2536,-0.2535,-0.2541,-0.2524,-0.2524,-0.2524,-0.2524,-0.2577,-0.2579,0,0,0,0,0,0,-0.2453,-0.2455,-0.2531,-0.2534,-0.2487,-0.2519,-0.2524,-0.254,-0.2535,-0.2535,-0.2546,-0.2545,-0.2537,-0.2535,-0.2534,-0.2573,-0.2524,-0.2524,-0.2524,-0.2576,-0.2578,-0.2579,0,0,0,0,0,0,-0.2451,-0.246,-0.2529,-0.2497,-0.2505,-0.2522,-0.254,-0.2541,-0.2549,-0.2544,-0.2542,-0.2553,-0.2536,-0.2534,-0.2547,-0.2571,-0.2524,-0.2524,-0.2574,-0.2576,-0.2578,-0.264,0,0,0,0,0,0,-0.2448,-0.2459,-0.2466,-0.2497,-0.2508,-0.256,-0.2541,-0.2543,-0.2558,-0.2556,-0.2549,-0.2546,-0.2535,-0.2547,-0.2547,-0.257,-0.2524,-0.2572,-0.2575,-0.2578,-0.2636,-0.2644,-0.265,0,0,0,0,0,-0.2444,-0.2463,-0.2467,-0.2476,-0.252,-0.2562,-0.2567,-0.2572,-0.2559,-0.2572,-0.2567,-0.2546,-0.2563,-0.2548,-0.2548,-0.2572,-0.2571,-0.2574,-0.2578,-0.2633,-0.2642,-0.265,0,0,0,0,0,0,-0.242,-0.2465,-0.2469,-0.25,-0.2531,-0.2561,-0.2572,-0.2577,-0.2585,-0.2578,-0.2564,-0.2562,-0.2583,-0.2571,-0.2554,-0.2596,-0.2564,-0.2567,-0.2606,-0.2615,-0.2622,-0.2623,-0.2524,0,0,0,0,0,-0.2421,-0.2446,-0.2487,-0.2511,-0.2527,-0.2549,-0.2564,-0.2574,-0.2589,-0.2591,-0.2589,-0.2587,-0.2598,-0.26,-0.2605,-0.2626,-0.261,-0.2642,-0.2649,-0.2656,-0.2657,-0.2664,-0.2672,-0.259,-0.2589,-0.2589,0,0,-0.2416,-0.2445,-0.2458,-0.2507,-0.2527,-0.2565,-0.2555,-0.2587,-0.2615,-0.2587,-0.2614,-0.2612,-0.261,-0.2637,-0.2645,-0.2628,-0.267,-0.266,-0.2665,-0.2663,-0.2668,-0.2676,-0.2683,-0.2592,-0.2591,-0.2591,0,0,-0.2427,-0.2449,-0.2475,-0.2508,-0.2551,-0.2573,-0.2585,-0.2622,-0.2632,-0.2665,-0.2653,-0.2669,-0.268,-0.269,-0.2694,-0.2744,-0.2709,-0.2743,-0.2779,-0.2786,-0.2793,-0.2798,-0.2784,-0.2788,-0.2746,-0.2746,-0.2746,0,-0.2416,-0.246,-0.2488,-0.2527,-0.2556,-0.2579,-0.2617,-0.2643,-0.2677,-0.2693,-0.2679,-0.2713,-0.2709,-0.2747,-0.2764,-0.2761,-0.2747,-0.2746,-0.2795,-0.28,-0.2805,-0.2789,-0.2792,-0.2749,-0.2749,-0.2748,-0.2748,0,-0.245,-0.2488,-0.2508,-0.2566,-0.2601,-0.2638,-0.2684,-0.2715,-0.2727,-0.2749,-0.2787,-0.2789,-0.2806,-0.2814,-0.2803,-0.2841,-0.2814,-0.2804,-0.2771,-0.2817,-0.2797,-0.2799,-0.2754,-0.2753,-0.2752,-0.2751,0,0,-0.2415,-0.2512,-0.2517,-0.2551,-0.2625,-0.2656,-0.2715,-0.2771,-0.2802,-0.2832,-0.2866,-0.2895,-0.2888,-0.2893,-0.2886,-0.2895,-0.2915,-0.2863,-0.2861,-0.2844,-0.2913,-0.2812,-0.2804,-0.291,-0.291,-0.2911,-0.2884,0,-0.2427,-0.2501,-0.2552,-0.2619,-0.2658,-0.2712,-0.2765,-0.2818,-0.2853,-0.2892,-0.2909,-0.2935,-0.2922,-0.2926,-0.2938,-0.2922,-0.2925,-0.2922,-0.2874,-0.2873,-0.2774,-0.2805,-0.2597,-0.2548,-0.2886,-0.2886,-0.2886,0,-0.2435,-0.2487,-0.2555,-0.2648,-0.2669,-0.2712,-0.2792,-0.2843,-0.2912,-0.2939,-0.2974,-0.2982,-0.301,-0.2982,-0.2986,-0.2982,-0.2952,-0.2935,-0.2933,-0.2818,-0.2776,-0.2558,-0.2539,-0.289,-0.289,-0.2889,-0.2889,0,-0.2382,-0.2484,-0.2535,-0.2568,-0.2678,-0.2712,-0.2764,-0.2845,-0.289,-0.2958,-0.2986,-0.3024,-0.3031,-0.3022,-0.2986,-0.2988,-0.2968,-0.2966,-0.2849,-0.2841,-0.2643,-0.2615,-0.2962,-0.2962,-0.2962,-0.2963,-0.2963,0,-0.2371,-0.2409,-0.2511,-0.2539,-0.2593,-0.2679,-0.2739,-0.28,-0.2884,-0.2924,-0.2991,-0.3013,-0.3039,-0.3031,-0.2999,-0.292,-0.2977,-0.2854,-0.283,-0.2657,-0.2633,-0.2913,-0.2907,-0.2961,-0.2962,-0.2962,-0.2962,0,-0.2302,-0.2377,-0.2432,-0.2539,-0.2569,-0.2598,-0.2709,-0.2747,-0.2846,-0.2897,-0.2918,-0.3002,-0.2987,-0.299,-0.2966,-0.2917,-0.2864,-0.2818,-0.2602,-0.2553,-0.2731,-0.2729,-0.2698,-0.2694,-0.2691,-0.2688,-0.2686,0,-0.2273,-0.2295,-0.2396,-0.2416,-0.246,-0.2527,-0.2567,-0.2696,-0.274,-0.287,-0.2875,-0.2913,-0.2885,-0.2827,-0.2752,-0.2671,-0.2764,-0.2446,-0.2417,-0.2725,-0.2706,-0.2709,-0.2712,-0.2179,-0.2173,-0.2168,-0.2164,0,-0.2196,-0.2229,-0.2269,-0.2314,-0.2354,-0.2411,-0.248,-0.2515,-0.2654,-0.2699,-0.2734,-0.2727,-0.2692,-0.2518,-0.2437,-0.2366,-0.2447,-0.2339,-0.2712,-0.2281,-0.2234,-0.2216,-0.2236,-0.2119,-0.2123,-0.2127,-0.2129,-0.2131,-0.2111,-0.2111,-0.2155,-0.2184,-0.2229,-0.2253,-0.2245,-0.2329,-0.2364,-0.2388,-0.2499,-0.2415,-0.241,-0.2165,-0.2062,-0.1988,-0.2153,-0.2067,-0.2084,-0.2105,-0.2053,-0.2003,-0.1834,-0.1836,-0.1839,-0.1841,-0.1843,0,-0.1987,-0.2,-0.2019,-0.2045,-0.2027,-0.2106,-0.2147,-0.2102,-0.207,-0.2118,-0.211,-0.1896,-0.179,-0.1791,-0.1606,-0.1577,-0.1568,-0.1518,-0.1512,-0.1557,-0.1596,-0.152,-0.1158,-0.1156,-0.1154,-0.1153,0,0,-0.192,-0.1886,-0.1897,-0.1824,-0.1837,-0.1761,-0.1744,-0.1696,-0.1687,-0.1585,-0.1543,-0.1679,-0.1723,-0.1439,-0.1378,-0.1238,-0.1381,-0.1173,-0.1719,-0.1755,-0.1793,-0.1907,-0.1837,0,0,0,0,0]},{"header":{"parameterUnit":"m.s-1","parameterCategory":2,"la1":30.2991,"la2":30.254,"lo1":-89.0895,"lo2":-89.0444,"dy":0.0017,"dx":0.0017,"nx":28,"ny":28,"refTime":"2025-04-30T09:00:00:Z","depth":"2","parameterNumber":3,"parameterNumberName":"V-component_of_CURRENTS"},"data":[0,0,0,0,0,0,0,0,0,0,0,0,0,0,0,0,0,0,0,0,0,0,0,0,0,0,0,0,0,0,0,0,0,0,0,0,0,0,0,0,0,0,0,0,0,0,0,0,0,0,0,0,0,0,0,0,0,0,-0.0182,-0.0181,0,-0.0081,-0.008,-0.0079,-0.0005,-0.0005,-0.0005,-0.0004,0.0151,0.0155,0.0159,0,0,0,0,0,0,0,0,0,0,0,0,0,-0.0238,-0.0237,-0.0182,-0.0181,-0.018,-0.0082,-0.008,-0.0078,-0.0005,-0.0005,-0.0004,-0.0004,0.015,0.0155,0.0159,0,0,0,0,0,0,0,0,0,0,0,0,0,-0.0181,-0.0237,-0.0182,-0.0133,-0.0128,-0.0082,-0.008,-0.0078,-0.0006,-0.0005,-0.0004,-0.0004,0.0149,0.0154,0.016,0.0183,0,0,0.0177,0.018,0,0,0,0,0,0,0,0,-0.0184,-0.0179,-0.0142,-0.0137,-0.0131,-0.0058,-0.0043,0.0011,-0.0006,-0.0049,-0.0004,-0.0004,0.0085,0.0096,0.0116,0.019,0.0197,0.0178,0.0181,0.0184,0.0185,0,0,0,0,0,0,0,-0.0188,-0.0182,-0.0139,-0.0141,-0.0134,-0.0092,-0.0084,-0.0032,0.0016,-0.0046,-0.0041,-0.0034,0.0088,0.011,0.012,0.0199,0.0178,0.0183,0.0186,0.0188,0.0317,0.0317,0,0,0,0,0,0,-0.021,-0.0186,-0.0143,-0.0137,-0.0159,-0.0092,-0.0082,-0.008,0.0014,0.0028,-0.0034,-0.0031,0.01,0.0114,0.0126,0.0163,0.0184,0.0189,0.0192,0.0317,0.0317,0.0317,0,0,0,0,0,0,-0.0212,-0.0208,-0.0147,-0.0161,-0.015,-0.0092,-0.0089,-0.0078,-0.0056,0.0022,0.0037,-0.0024,0.0101,0.0118,0.0171,0.017,0.0191,0.0197,0.0317,0.0317,0.0317,0.0235,0,0,0,0,0,0,-0.0214,-0.0209,-0.0215,-0.0163,-0.0151,-0.0129,-0.009,-0.0077,-0.0054,-0.0048,0.0036,0.0051,0.0103,0.0162,0.0177,0.0178,0.0201,0.0317,0.0317,0.0317,0.0237,0.0232,0.0227,0,0,0,0,0,-0.0216,-0.0233,-0.0216,-0.0211,-0.0161,-0.013,-0.012,-0.0074,-0.0054,-0.0051,0.0009,0.0048,0.0173,0.0167,0.0184,0.0186,0.0317,0.0317,0.0317,0.024,0.0233,0.0227,0,0,0,0,0,0,-0.0259,-0.0225,-0.0206,-0.0211,-0.0177,-0.0119,-0.0114,-0.0082,-0.0032,-0.0025,0.0051,0.007,0.0115,0.0162,0.0153,0.0224,0.0251,0.0254,0.0186,0.018,0.0175,0.0156,0.0206,0,0,0,0,0,-0.0274,-0.0276,-0.0233,-0.0236,-0.0224,-0.017,-0.0152,-0.0121,-0.0072,-0.0049,0.0009,0.0073,0.0129,0.0161,0.0215,0.0254,0.0305,0.0268,0.0262,0.0258,0.0254,0.033,0.0331,0.0318,0.0318,0.0318,0,0,-0.0291,-0.0273,-0.0273,-0.0245,-0.0215,-0.0206,-0.0157,-0.0138,-0.0123,-0.004,-0.0003,0.0056,0.0134,0.0178,0.0203,0.0218,0.0287,0.0258,0.0253,0.0252,0.033,0.0331,0.0333,0.0318,0.0318,0.0318,0,0,-0.0331,-0.0311,-0.0328,-0.0307,-0.0274,-0.0238,-0.0237,-0.0184,-0.0152,-0.0111,-0.0047,0.001,0.009,0.0149,0.0189,0.019,0.0255,0.0204,0.0168,0.0241,0.0243,0.0245,0.0302,0.031,0.0204,0.0204,0.0204,0,-0.0354,-0.0367,-0.0327,-0.0335,-0.0325,-0.0259,-0.0269,-0.0227,-0.0161,-0.0134,-0.0113,0.0016,0.0078,0.0146,0.0145,0.0178,0.0224,0.0182,0.0233,0.0237,0.024,0.0299,0.0309,0.02,0.0201,0.0201,0.0201,0,-0.0404,-0.0411,-0.042,-0.0408,-0.0389,-0.0388,-0.0331,-0.0302,-0.0257,-0.0207,-0.0137,-0.0047,0.0031,0.0059,0.0103,0.0159,0.0184,0.0214,0.0244,0.0236,0.0299,0.0311,0.0194,0.0196,0.0197,0.0198,0,0,-0.0461,-0.0459,-0.046,-0.047,-0.0429,-0.0421,-0.0393,-0.0347,-0.0326,-0.0249,-0.0209,-0.011,-0.0055,-0.0006,0.0064,0.0127,0.0189,0.0171,0.0177,0.0219,0.034,0.0367,0.0383,0.0227,0.0229,0.023,0.0371,0,-0.0512,-0.0557,-0.0529,-0.0556,-0.0573,-0.0507,-0.0488,-0.0432,-0.0368,-0.031,-0.0202,-0.0137,-0.008,-0.0042,0.003,0.0154,0.0217,0.0148,0.035,0.0356,0.0373,0.0396,0.0347,0.047,0.0383,0.0385,0.0386,0,-0.0568,-0.0592,-0.0638,-0.0637,-0.0636,-0.0634,-0.0589,-0.0561,-0.0456,-0.0404,-0.0313,-0.0221,-0.0108,-0.0063,0.0139,0.0091,0.0202,0.0295,0.0304,0.0366,0.0404,0.0467,0.0495,0.0406,0.0405,0.0403,0.0402,0,-0.0638,-0.0663,-0.0706,-0.0707,-0.0694,-0.0693,-0.0673,-0.0592,-0.0567,-0.0456,-0.0417,-0.0269,-0.0185,-0.0031,0.0166,0.0155,0.0387,0.0403,0.0532,0.0534,0.0553,0.0554,0.0539,0.0539,0.0539,0.0539,0.0538,0,-0.0706,-0.0737,-0.0746,-0.0772,-0.0813,-0.0768,-0.0777,-0.0729,-0.0654,-0.0619,-0.0473,-0.0401,-0.0172,-0.0007,0.0155,0.0384,0.0387,0.0532,0.0579,0.0521,0.0519,0.0511,0.0506,0.0544,0.0543,0.0542,0.0541,0,-0.0774,-0.0779,-0.0833,-0.0845,-0.0851,-0.0878,-0.0863,-0.0861,-0.0776,-0.0722,-0.0688,-0.0486,-0.0261,-0.0031,0.0242,0.0377,0.0587,0.0664,0.0574,0.0607,0.0684,0.0673,0.0819,0.0821,0.0823,0.0825,0.0826,0,-0.0815,-0.0851,-0.09,-0.094,-0.095,-0.0978,-0.0994,-0.0933,-0.0918,-0.0767,-0.0742,-0.0513,-0.0331,0.0076,0.0354,0.0651,0.0654,0.0766,0.0741,0.0685,0.0716,0.0701,0.0688,0.0732,0.0732,0.0732,0.0733,0,-0.089,-0.0904,-0.0948,-0.1034,-0.1075,-0.1113,-0.1122,-0.1129,-0.1035,-0.0954,-0.0795,-0.0633,-0.0233,0.0097,0.0474,0.0639,0.0712,0.0783,0.0776,0.066,0.0613,0.0639,0.0627,0.0736,0.0736,0.0735,0.0735,0.0735,-0.0934,-0.0987,-0.1047,-0.1122,-0.1177,-0.1224,-0.1244,-0.1216,-0.1168,-0.1013,-0.0852,-0.0572,-0.0257,0.0288,0.0546,0.0788,0.0792,0.0845,0.084,0.0836,0.0792,0.075,0.0891,0.0891,0.0892,0.0892,0.0892,0,-0.0989,-0.1046,-0.113,-0.1215,-0.1285,-0.1287,-0.1308,-0.128,-0.1208,-0.1022,-0.0825,-0.0458,-0.0081,0.025,0.0632,0.0857,0.0833,0.0885,0.0804,0.08,0.0796,0.0747,0.0836,0.0837,0.0837,0.0838,0,0,-0.1019,-0.1108,-0.1153,-0.128,-0.1338,-0.1387,-0.1391,-0.131,-0.1173,-0.0972,-0.0754,-0.0461,-0.0063,0.019,0.0469,0.0665,0.0672,0.0681,0.0702,0.0569,0.0563,0.0751,0.0669,0,0,0,0,0]}],[{"header":{"parameterUnit":"m.s-1","parameterCategory":2,"la1":30.2991,"la2":30.254,"lo1":-89.0895,"lo2":-89.0444,"dy":0.0017,"dx":0.0017,"nx":28,"ny":28,"refTime":"2025-04-30T09:00:00:Z","depth":"4","parameterNumber":2,"parameterNumberName":"U-component_of_CURRENTS"},"data":[0,0,0,0,0,0,0,0,0,0,0,0,0,0,0,0,0,0,0,0,0,0,0,0,0,0,0,0,0,0,0,0,0,0,0,0,0,0,0,0,0,0,0,0,0,0,0,0,0,0,0,0,0,0,0,0,0,0,-0.1778,-0.1779,0,-0.1858,-0.1858,-0.1859,-0.1903,-0.1903,-0.1904,-0.1904,-0.196,-0.1961,-0.1962,0,0,0,0,0,0,0,0,0,0,0,0,0,-0.1664,-0.1666,-0.1778,-0.1779,-0.1781,-0.1858,-0.1859,-0.1859,-0.1903,-0.1903,-0.1904,-0.1904,-0.1959,-0.1961,-0.1962,0,0,0,0,0,0,0,0,0,0,0,0,0,-0.1724,-0.1667,-0.1778,-0.1813,-0.1817,-0.1857,-0.1859,-0.186,-0.1903,-0.1903,-0.1904,-0.1904,-0.1959,-0.1961,-0.1962,-0.1965,0,0,-0.1968,-0.1969,0,0,0,0,0,0,0,0,-0.172,-0.1728,-0.1807,-0.1811,-0.1815,-0.1873,-0.1839,-0.1894,-0.1903,-0.1868,-0.1904,-0.1904,-0.1929,-0.1934,-0.1945,-0.1968,-0.197,-0.1968,-0.1969,-0.197,-0.1971,0,0,0,0,0,0,0,-0.1716,-0.1725,-0.1808,-0.1808,-0.1813,-0.1825,-0.1834,-0.185,-0.1893,-0.1871,-0.1875,-0.1887,-0.1931,-0.1943,-0.1947,-0.1971,-0.1968,-0.197,-0.1971,-0.1972,-0.2082,-0.2084,0,0,0,0,0,0,-0.171,-0.1721,-0.1805,-0.181,-0.177,-0.1827,-0.1836,-0.1852,-0.1894,-0.1901,-0.1886,-0.1889,-0.194,-0.1945,-0.1949,-0.2035,-0.197,-0.1972,-0.1973,-0.208,-0.2082,-0.2084,0,0,0,0,0,0,-0.1707,-0.1717,-0.1802,-0.1768,-0.178,-0.1828,-0.1846,-0.1854,-0.1896,-0.1906,-0.1913,-0.1924,-0.1941,-0.1946,-0.1997,-0.2034,-0.1973,-0.1974,-0.2078,-0.2081,-0.2083,-0.2154,0,0,0,0,0,0,-0.1704,-0.1716,-0.1738,-0.1768,-0.1782,-0.185,-0.1846,-0.1855,-0.1901,-0.1906,-0.194,-0.1944,-0.1941,-0.1995,-0.1999,-0.2035,-0.1976,-0.2076,-0.2079,-0.2082,-0.215,-0.2159,-0.2167,0,0,0,0,0,-0.17,-0.1726,-0.1738,-0.175,-0.1807,-0.1851,-0.186,-0.1893,-0.1903,-0.1931,-0.1957,-0.1944,-0.2019,-0.1998,-0.2002,-0.204,-0.2074,-0.2078,-0.2082,-0.2146,-0.2157,-0.2167,0,0,0,0,0,0,-0.169,-0.1734,-0.1748,-0.1788,-0.1828,-0.186,-0.1892,-0.1911,-0.1954,-0.1966,-0.197,-0.1976,-0.2034,-0.2029,-0.2005,-0.2082,-0.2044,-0.2049,-0.2091,-0.2101,-0.211,-0.2101,-0.1977,0,0,0,0,0,-0.1697,-0.173,-0.177,-0.1805,-0.1827,-0.1865,-0.1892,-0.1917,-0.1952,-0.1973,-0.1998,-0.2024,-0.2049,-0.207,-0.2091,-0.2134,-0.2111,-0.2161,-0.217,-0.2178,-0.2175,-0.2178,-0.2186,-0.2098,-0.2098,-0.2098,0,0,-0.1703,-0.1732,-0.1752,-0.1806,-0.1839,-0.1882,-0.1883,-0.1937,-0.1979,-0.1971,-0.2043,-0.2059,-0.2069,-0.212,-0.2145,-0.2124,-0.2192,-0.2183,-0.2189,-0.2182,-0.2183,-0.2191,-0.2198,-0.2101,-0.21,-0.21,0,0,-0.1724,-0.176,-0.1792,-0.1831,-0.189,-0.1915,-0.1938,-0.1992,-0.2026,-0.209,-0.2094,-0.2135,-0.2181,-0.2194,-0.2204,-0.2274,-0.2239,-0.2285,-0.2324,-0.2328,-0.2335,-0.234,-0.2322,-0.2325,-0.2289,-0.229,-0.229,0,-0.1732,-0.1777,-0.181,-0.1854,-0.1892,-0.1934,-0.1981,-0.2022,-0.2089,-0.2117,-0.2126,-0.2199,-0.2213,-0.226,-0.2288,-0.2294,-0.2279,-0.2283,-0.2338,-0.2343,-0.2348,-0.2327,-0.233,-0.2294,-0.2293,-0.2293,-0.2292,0,-0.1768,-0.182,-0.1846,-0.1913,-0.1958,-0.2009,-0.2065,-0.212,-0.2164,-0.2197,-0.2267,-0.229,-0.2326,-0.2345,-0.234,-0.2386,-0.236,-0.2348,-0.2307,-0.2361,-0.2336,-0.2337,-0.2299,-0.2298,-0.2297,-0.2296,0,0,-0.174,-0.185,-0.1862,-0.1905,-0.1996,-0.2032,-0.2113,-0.2183,-0.2229,-0.2296,-0.2346,-0.2404,-0.2411,-0.2422,-0.2425,-0.2435,-0.246,-0.2411,-0.2409,-0.2384,-0.2454,-0.2292,-0.2277,-0.2459,-0.246,-0.246,-0.2423,0,-0.1761,-0.1845,-0.19,-0.1987,-0.2034,-0.2104,-0.217,-0.2241,-0.2298,-0.2357,-0.2391,-0.244,-0.2442,-0.2462,-0.2477,-0.2465,-0.2468,-0.247,-0.2412,-0.241,-0.2252,-0.2275,-0.2463,-0.2423,-0.2424,-0.2424,-0.2424,0,-0.1767,-0.1827,-0.1916,-0.2023,-0.2051,-0.2113,-0.2214,-0.2278,-0.2365,-0.2407,-0.2461,-0.2483,-0.2523,-0.2508,-0.2516,-0.2518,-0.2493,-0.2477,-0.2474,-0.2295,-0.2249,-0.2359,-0.2426,-0.2426,-0.2426,-0.2425,-0.2425,0,-0.1709,-0.1832,-0.1903,-0.1943,-0.2072,-0.2128,-0.2196,-0.2294,-0.2344,-0.2434,-0.2467,-0.252,-0.2539,-0.2536,-0.2512,-0.252,-0.2492,-0.2494,-0.2323,-0.2311,-0.2437,-0.2432,-0.2487,-0.2487,-0.2488,-0.2488,-0.2488,0,-0.1688,-0.1748,-0.1888,-0.1926,-0.2006,-0.2106,-0.219,-0.2262,-0.2356,-0.2391,-0.2482,-0.2492,-0.2547,-0.2539,-0.2517,-0.2408,-0.2495,-0.2319,-0.2288,-0.2469,-0.2467,-0.2438,-0.2432,-0.2486,-0.2486,-0.2487,-0.2487,0,-0.1608,-0.1707,-0.179,-0.1936,-0.1982,-0.2036,-0.2173,-0.2214,-0.2326,-0.237,-0.2397,-0.2477,-0.2458,-0.2478,-0.2457,-0.2384,-0.2317,-0.2257,-0.2434,-0.2416,-0.2136,-0.2135,-0.2063,-0.2057,-0.2052,-0.2047,-0.2044,0,-0.1573,-0.1611,-0.1768,-0.181,-0.1882,-0.1981,-0.2035,-0.2175,-0.2207,-0.2325,-0.2314,-0.2355,-0.2381,-0.2212,-0.2265,-0.2198,-0.2175,-0.213,-0.2147,-0.2114,-0.2092,-0.2099,-0.2106,-0.2035,-0.2034,-0.2033,-0.2031,0,-0.149,-0.156,-0.1624,-0.1711,-0.1783,-0.1851,-0.1938,-0.1947,-0.2078,-0.2205,-0.2158,-0.214,-0.2109,-0.2086,-0.2042,-0.2003,-0.2158,-0.2077,-0.2088,-0.2103,-0.208,-0.2065,-0.2077,-0.2013,-0.2016,-0.2018,-0.2019,0,-0.1419,-0.1436,-0.1522,-0.158,-0.1662,-0.1677,-0.1753,-0.1778,-0.183,-0.1966,-0.1938,-0.1986,-0.2069,-0.1982,-0.1943,-0.1888,-0.1869,-0.1814,-0.1839,-0.1859,-0.1812,-0.1754,-0.1547,0,0,0,0,0,-0.1335,-0.1333,-0.1378,-0.1432,-0.1505,-0.1547,-0.1659,-0.1735,-0.1865,-0.1772,-0.1851,-0.1812,-0.1761,-0.1794,-0.1692,-0.1862,-0.1882,-0.1738,-0.1835,-0.1914,-0.1935,-0.1899,0,0,0,0,0,0,-0.1277,-0.1312,-0.1325,-0.1285,-0.1287,-0.1346,-0.1406,-0.1502,-0.1466,-0.1604,-0.1578,-0.1691,-0.1664,-0.1773,-0.1647,-0.1657,-0.1679,-0.1786,-0.1781,-0.1902,-0.1921,-0.1938,-0.1908,0,0,0,0,0]},{"header":{"parameterUnit":"m.s-1","parameterCategory":2,"la1":30.2991,"la2":30.254,"lo1":-89.0895,"lo2":-89.0444,"dy":0.0017,"dx":0.0017,"nx":28,"ny":28,"refTime":"2025-04-30T09:00:00:Z","depth":"4","parameterNumber":3,"parameterNumberName":"V-component_of_CURRENTS"},"data":[0,0,0,0,0,0,0,0,0,0,0,0,0,0,0,0,0,0,0,0,0,0,0,0,0,0,0,0,0,0,0,0,0,0,0,0,0,0,0,0,0,0,0,0,0,0,0,0,0,0,0,0,0,0,0,0,0,0,-0.0179,-0.0179,0,-0.0108,-0.0107,-0.0106,-0.0057,-0.0057,-0.0057,-0.0057,0.0071,0.0074,0.0077,0,0,0,0,0,0,0,0,0,0,0,0,0,-0.0212,-0.0212,-0.0179,-0.0179,-0.0178,-0.0108,-0.0107,-0.0106,-0.0057,-0.0057,-0.0057,-0.0057,0.007,0.0074,0.0078,0,0,0,0,0,0,0,0,0,0,0,0,0,-0.0173,-0.0212,-0.0179,-0.0147,-0.0144,-0.0109,-0.0107,-0.0106,-0.0057,-0.0057,-0.0057,-0.0056,0.0069,0.0074,0.0078,0.0104,0,0,0.0093,0.0095,0,0,0,0,0,0,0,0,-0.0176,-0.0172,-0.0152,-0.0149,-0.0145,-0.0093,-0.0072,-0.0033,-0.0057,-0.0087,-0.0057,-0.0056,0.002,0.0029,0.0044,0.011,0.0116,0.0094,0.0097,0.0099,0.01,0,0,0,0,0,0,0,-0.0178,-0.0174,-0.0149,-0.0152,-0.0147,-0.0115,-0.011,-0.0064,-0.0033,-0.0085,-0.0082,-0.0078,0.0022,0.0039,0.0048,0.0117,0.0094,0.0098,0.0101,0.0103,0.0224,0.0224,0,0,0,0,0,0,-0.0195,-0.0177,-0.0151,-0.0147,-0.0163,-0.0115,-0.0109,-0.0108,-0.0035,-0.0024,-0.0078,-0.0076,0.0031,0.0042,0.0052,0.0088,0.0099,0.0103,0.0106,0.0224,0.0224,0.0224,0,0,0,0,0,0,-0.0197,-0.0194,-0.0154,-0.0162,-0.0155,-0.0116,-0.0115,-0.0107,-0.0092,-0.0031,-0.0019,-0.0071,0.0031,0.0045,0.0092,0.0093,0.0106,0.011,0.0223,0.0224,0.0224,0.0159,0,0,0,0,0,0,-0.0198,-0.0195,-0.0201,-0.0163,-0.0155,-0.014,-0.0115,-0.0106,-0.0091,-0.0087,-0.0021,-0.0009,0.0033,0.0085,0.0097,0.01,0.0114,0.0223,0.0224,0.0224,0.0161,0.0157,0.0154,0,0,0,0,0,-0.0199,-0.0211,-0.0202,-0.0199,-0.0165,-0.0141,-0.0134,-0.0103,-0.0091,-0.0087,-0.004,-0.0011,0.0097,0.0089,0.0103,0.0108,0.0223,0.0223,0.0224,0.0162,0.0158,0.0154,0,0,0,0,0,0,-0.0228,-0.0207,-0.0196,-0.0201,-0.0176,-0.0134,-0.0131,-0.0108,-0.0069,-0.0065,-0.0005,0.001,0.0051,0.009,0.0079,0.0145,0.0164,0.0168,0.0112,0.0109,0.0105,0.0086,0.0118,0,0,0,0,0,-0.0239,-0.0243,-0.0213,-0.0217,-0.0209,-0.0171,-0.0158,-0.0137,-0.0098,-0.0081,-0.0034,0.0018,0.0065,0.0094,0.0139,0.0177,0.0212,0.019,0.0186,0.0183,0.0178,0.0231,0.0231,0.0227,0.0227,0.0227,0,0,-0.0251,-0.024,-0.0243,-0.0223,-0.0203,-0.0195,-0.0162,-0.0148,-0.0136,-0.0072,-0.0042,0.0007,0.0072,0.0112,0.0134,0.0145,0.0202,0.0184,0.018,0.0177,0.0231,0.0232,0.0232,0.0227,0.0227,0.0227,0,0,-0.0278,-0.0269,-0.0281,-0.0266,-0.0244,-0.0218,-0.0218,-0.0178,-0.0156,-0.0121,-0.0072,-0.0025,0.0046,0.0093,0.0127,0.0134,0.018,0.0149,0.012,0.0171,0.0172,0.0173,0.0211,0.0215,0.015,0.015,0.015,0,-0.0294,-0.0306,-0.028,-0.0285,-0.028,-0.0233,-0.0241,-0.0209,-0.0157,-0.0139,-0.0121,-0.0017,0.0037,0.0093,0.0096,0.0126,0.0157,0.0127,0.0165,0.0167,0.0169,0.0208,0.0214,0.0147,0.0147,0.0148,0.0148,0,-0.0327,-0.0336,-0.0342,-0.0335,-0.0322,-0.0323,-0.0281,-0.0261,-0.0229,-0.0192,-0.0138,-0.0062,-0.0001,0.0026,0.0065,0.0108,0.0125,0.015,0.017,0.0165,0.0207,0.0214,0.0143,0.0144,0.0145,0.0145,0,0,-0.0363,-0.0367,-0.037,-0.0382,-0.0353,-0.0349,-0.0328,-0.0297,-0.0287,-0.0224,-0.0201,-0.0111,-0.0072,-0.0031,0.0029,0.0077,0.012,0.0114,0.0118,0.014,0.0223,0.0203,0.021,0.0149,0.015,0.0151,0.0243,0,-0.0398,-0.0433,-0.0416,-0.0441,-0.0455,-0.0413,-0.04,-0.0363,-0.0318,-0.0281,-0.0194,-0.0147,-0.0091,-0.0063,-0.0005,0.0092,0.0138,0.0092,0.0234,0.0238,0.0212,0.0218,0.0155,0.0249,0.0251,0.0252,0.0253,0,-0.0434,-0.0456,-0.0495,-0.0506,-0.0508,-0.0512,-0.0492,-0.0473,-0.0402,-0.0365,-0.0298,-0.0227,-0.0137,-0.0095,0.0061,0.0028,0.0114,0.0188,0.0194,0.0202,0.0232,0.026,0.0268,0.0266,0.0265,0.0264,0.0264,0,-0.0481,-0.0508,-0.0547,-0.0551,-0.0552,-0.0561,-0.0555,-0.0504,-0.0492,-0.0417,-0.0396,-0.0279,-0.022,-0.0095,0.0064,0.0063,0.023,0.0251,0.0314,0.0314,0.0332,0.0331,0.0351,0.0351,0.0351,0.035,0.035,0,-0.0522,-0.0554,-0.058,-0.0602,-0.065,-0.0624,-0.0649,-0.0618,-0.0575,-0.056,-0.0448,-0.0401,-0.0217,-0.0094,0.0044,0.0201,0.022,0.0306,0.0337,0.0303,0.0297,0.0338,0.0335,0.0354,0.0353,0.0352,0.0352,0,-0.056,-0.0576,-0.063,-0.0661,-0.0676,-0.0709,-0.0725,-0.0733,-0.0682,-0.0656,-0.0635,-0.0489,-0.0323,-0.0139,0.0074,0.0168,0.0325,0.0375,0.0315,0.0342,0.0377,0.037,0.0446,0.0446,0.0446,0.0446,0.0446,0,-0.0581,-0.0614,-0.0684,-0.0729,-0.0749,-0.0794,-0.0821,-0.0793,-0.0789,-0.0703,-0.0688,-0.0533,-0.0416,-0.0128,0.0059,0.0309,0.0344,0.0409,0.0399,0.0365,0.0388,0.0381,0.0374,0.0447,0.0447,0.0447,0.0447,0,-0.0622,-0.0652,-0.0697,-0.0791,-0.0845,-0.0895,-0.0924,-0.093,-0.0879,-0.0841,-0.0713,-0.055,-0.0366,-0.0134,0.0059,0.0239,0.0358,0.0411,0.0412,0.0403,0.0367,0.0387,0.0381,0.0447,0.0447,0.0447,0.0447,0,-0.0651,-0.0697,-0.0764,-0.084,-0.0918,-0.0966,-0.0978,-0.0952,-0.0933,-0.0823,-0.0783,-0.0563,-0.0431,-0.017,0.0011,0.0182,0.0222,0.0263,0.0273,0.0274,0.0196,0.0123,0.0152,0,0,0,0,0,-0.0672,-0.0725,-0.0806,-0.0887,-0.0965,-0.1,-0.1029,-0.1021,-0.0976,-0.0893,-0.0831,-0.0647,-0.036,-0.0228,-0.0059,-0.0006,0.0232,0.0192,0.0278,0.0448,0.0448,0.0383,0,0,0,0,0,0,-0.0689,-0.0766,-0.0806,-0.0906,-0.0965,-0.1036,-0.1055,-0.1025,-0.0961,-0.0891,-0.0729,-0.0628,-0.0342,-0.0452,-0.006,-0.0009,0.0062,0.0336,0.0339,0.0448,0.0448,0.0448,0.0381,0,0,0,0,0]}]]